Powrót do katalogu

TOM-1

AktywnyNaukaSSO
NORAD 69872·PAYLOAD·🇹🇼 Taiwan

Wystrzelony Jul 7, 2026 z Vandenberg Space Force Base

Loading…

Następne Przeloty (najbliższe 24 godziny)

TLE

ŚwieżeSource: Space-Track

Epoka: Sep 13, 2026, 16:07 UTC

1 69872U 26156D   26256.67166233  .00000983  00000-0  10553-3 0  9994
2 69872  97.7435 155.8593 0002183 228.7435 131.3595 14.90811331 10188

Śledź TOM-1 w czasie rzeczywistym z AllMySat

Download on the App Store